TimeCST,TemperatureF,Dew PointF,Humidity,Sea Level PressureIn,VisibilityMPH,Wind Direction,Wind SpeedMPH,Gust SpeedMPH,PrecipitationIn,Events,Conditions,WindDirDegrees,DateUTC
12:53 AM,33.1,24.1,70,29.83,10.0,SSW,11.5,-,N/A,,Clear,200,2013-02-04 06:53:00
1:53 AM,32.0,24.1,73,29.81,10.0,SSW,11.5,-,N/A,,Clear,210,2013-02-04 07:53:00
2:53 AM,30.9,23.0,72,29.80,10.0,SSW,11.5,-,N/A,,Clear,210,2013-02-04 08:53:00
4:53 AM,30.9,24.1,76,29.79,10.0,WSW,4.6,-,N/A,,Clear,240,2013-02-04 10:53:00
5:53 AM,28.9,23.0,78,29.81,10.0,NW,6.9,-,N/A,,Clear,320,2013-02-04 11:53:00
6:53 AM,32.0,25.0,75,29.83,10.0,North,15.0,-,N/A,,Clear,360,2013-02-04 12:53:00
7:53 AM,27.0,21.9,81,29.88,10.0,North,17.3,23.0,N/A,,Clear,360,2013-02-04 13:53:00
8:21 AM,26.6,21.2,80,29.86,10.0,North,12.7,-,N/A,,Mostly Cloudy,360,2013-02-04 14:21:00
8:53 AM,27.0,21.0,78,29.92,10.0,North,15.0,24.2,N/A,,Overcast,360,2013-02-04 14:53:00
9:53 AM,25.0,19.9,81,29.95,10.0,North,16.1,24.2,N/A,,Overcast,10,2013-02-04 15:53:00
10:53 AM,25.0,19.0,78,29.99,10.0,North,17.3,24.2,N/A,,Overcast,360,2013-02-04 16:53:00
11:53 AM,24.1,18.0,77,30.00,10.0,NNW,15.0,-,N/A,,Overcast,340,2013-02-04 17:53:00
12:53 PM,25.0,18.0,75,29.98,10.0,North,11.5,-,N/A,,Mostly Cloudy,360,2013-02-04 18:53:00
1:06 PM,26.6,17.6,69,29.94,10.0,NE,9.2,-,N/A,,Mostly Cloudy,40,2013-02-04 19:06:00
1:13 PM,26.6,17.6,69,29.94,10.0,NE,11.5,-,N/A,,Scattered Clouds,40,2013-02-04 19:13:00
1:53 PM,27.0,18.0,69,29.98,10.0,NNE,6.9,-,N/A,,Partly Cloudy,30,2013-02-04 19:53:00
2:53 PM,27.0,18.0,69,30.00,10.0,NNW,11.5,-,N/A,,Mostly Cloudy,330,2013-02-04 20:53:00
3:10 PM,26.6,17.6,69,29.96,10.0,North,8.1,-,N/A,,Scattered Clouds,350,2013-02-04 21:10:00
3:53 PM,26.1,18.0,71,30.01,10.0,NNE,8.1,-,N/A,,Clear,20,2013-02-04 21:53:00
4:53 PM,25.0,17.1,72,29.99,10.0,NNE,6.9,-,N/A,,Clear,20,2013-02-04 22:53:00
5:53 PM,21.9,16.0,78,29.98,10.0,ENE,4.6,-,N/A,,Partly Cloudy,60,2013-02-04 23:53:00
6:53 PM,21.0,16.0,81,29.99,10.0,ENE,3.5,-,N/A,,Clear,70,2013-02-05 00:53:00
7:53 PM,21.0,16.0,81,30.00,10.0,Calm,Calm,-,N/A,,Clear,0,2013-02-05 01:53:00
8:53 PM,21.0,17.1,85,29.99,10.0,South,4.6,-,N/A,,Overcast,180,2013-02-05 02:53:00
9:53 PM,19.9,17.1,89,30.01,9.0,SSW,3.5,-,N/A,,Overcast,210,2013-02-05 03:53:00
10:53 PM,21.0,17.1,85,29.98,9.0,South,5.8,-,N/A,,Overcast,190,2013-02-05 04:53:00
11:53 PM,21.0,17.1,85,29.96,10.0,South,8.1,-,N/A,,Mostly Cloudy,180,2013-02-05 05:53:00